"2022-03-01 00:01:00",2830270,3.353334,143.6,0.9520664,0.07888107,3.49,0,1.657333,143.0004,2.658094,0.1100586,1.84,0,-999,0,1.44,73.41,1.575,1.552,3.142,0.053,0,0.93,13.59,3.2,102.9668,3.312,3.312,3.308,100,0,0,0,396.8,255.3,255.3
"2022-03-01 00:02:00",2830271,3.388,144.5333,1.087286,0.09231828,3.53,0,1.544667,143.4659,2.629185,0.1221402,1.73,0,-999,0,1.413,73.61,1.53,1.511,3.246,0.087,0,0.926,13.58,3.388,102.9696,3.309,3.312,3.309,100,0,0,0,396.8,255.3,255.3
"2022-03-01 00:03:00",2830272,3.184,143.5999,0.9521692,0.05057007,3.31,0,1.39,141.0664,4.152986,0.1452813,1.61,0,-999,0,1.34,73.89,1.448,1.439,3.221,0.084,0,0.92,13.59,3.388,102.9802,3.31,3.311,3.309,100,0,0,0,396.8,255.3,255.3
"2022-03-01 00:04:00",2830273,3.207333,143.6676,2.795726,0.2196806,3.91,0,1.512667,142.8019,4.872505,0.1379114,1.79,0,-999,0,1.3,73.91,1.428,1.4,3.233,0.06,0,0.903,13.59,3.325,102.9812,3.308,3.31,3.308,100,0,0,0,396.8,255.3,255.3
"2022-03-01 00:05:00",2830274,3.152,142.3334,1.192456,0.2079807,3.72,0,1.592667,140.466,2.728709,0.1186854,1.83,0,-999,0,1.3,74.07,1.38,1.365,3.25,0.173,0,0.89,13.59,3.763,102.9794,3.311,3.312,3.308,100,0,0,0,396.8,255.3,255.3
"2022-03-01 00:06:00",2830275,3.198,142.5333,0.6180322,0.05764257,3.3,0,1.618,138.0003,2.129155,0.222447,1.87,0,-999,0,1.273,74.1,1.353,1.342,3.321,0.053,0,0.883,13.59,3.45,102.9838,3.308,3.311,3.308,100,0,0,0,396.8,255.3,255.3
"2022-03-01 00:07:00",2830276,3.164,142.8,0.8325349,0.08187795,3.32,0,1.521333,136.5343,2.679463,0.1779089,1.83,0,-999,0,1.24,74.19,1.348,1.332,3.317,0.14,0,0.863,13.59,3.575,102.9838,3.31,3.31,3.307,100,0,0,0,396.8,255.3,255.3
"2022-03-01 00:08:00",2830277,3.234,143.2,0.7482283,0.1252091,3.58,0,1.331333,136.5997,2.026219,0.1341078,1.55,0,-999,0,1.2,74.43,1.316,1.306,3.283,0.124,0,0.852,13.59,3.513,102.9797,3.308,3.309,3.306,100,0,0,0,396.8,255.2,255.3
"2022-03-01 00:09:00",2830278,3.324667,143,0.7302269,0.04302969,3.42,0,1.287333,137.009,6.320861,0.1757827,1.76,0,-999,0,1.2,74.39,1.278,1.292,3.292,0.156,0,0.84,13.59,3.513,102.9841,3.308,3.31,3.308,100,0,0,0,396.8,255.3,255.3
"2022-03-01 00:10:00",2830279,3.228,142.5333,1.309791,0.1451528,3.53,0,1.005333,142.9826,7.832231,0.1867571,1.48,0,-999,0,1.2,73.94,1.276,1.289,3.129,0.085,0,0.833,13.59,3.263,102.9654,3.31,3.31,3.307,100,0,0,0,396.8,255.3,255.3
"2022-03-01 00:11:00",2830280,3.157333,142.9333,1.123494,0.07663479,3.32,0,1.183333,144.6669,5.015447,0.09442222,1.37,0,-999,0,1.153,74.17,1.248,1.243,3.275,0.1,0,0.82,13.59,3.45,102.9705,3.308,3.312,3.308,100,0,0,0,396.8,255.3,255.3
"2022-03-01 00:12:00",2830281,3.121334,142.8,0.9796239,0.1065749,3.31,0,1.077333,141.9348,4.903894,0.1042092,1.3,0,-999,0,1.1,74.68,1.183,1.165,3.321,0.053,0,0.797,13.59,3.388,102.9859,3.308,3.31,3.308,100,0,0,0,396.8,255.3,255.3
"2022-03-01 00:13:00",2830282,2.950667,144.0666,1.123494,0.1234756,3.23,0,0.9626666,143.9342,4.249467,0.1169311,1.18,0,-999,0,1.027,75.01,1.101,1.091,3.267,0.09,0,0.791,13.59,3.45,102.9838,3.308,3.309,3.307,100,0,0,0,396.8,255.3,255.3
"2022-03-01 00:14:00",2830283,3.03,143.5334,0.9567826,0.1070203,3.21,0,1.070667,140.6066,4.920995,0.1186292,1.3,0,-999,0,1,74.93,1.032,1.03,3.208,0.068,0,0.773,13.59,3.325,102.9918,3.308,3.309,3.307,100,0,0,0,396.8,255.3,255.3
"2022-03-01 00:15:00",2830284,3.151333,143.7333,1.388713,0.07923525,3.28,0,1.172,141.466,3.262403,0.1127948,1.41,0,-999,0,0.9,74.88,0.976,0.998,3.158,0.122,0,0.757,13.59,3.388,102.9925,3.308,3.31,3.308,100,0,0,0,396.8,255.3,255.3
"2022-03-01 00:16:00",2830285,3.026,144.3328,1.988463,0.1272687,3.2,0,1.312,140.2002,2.103752,0.1218305,1.51,0,-999,0,0.9,74.88,0.954,0.948,3.183,0.117,0,0.746,13.58,3.388,102.9878,3.308,3.31,3.308,100,0,0,0,396.8,255.2,255.3
"2022-03-01 00:17:00",2830286,3.021333,143.4665,1.543404,0.07710312,3.16,0,1.176667,137.7336,3.171633,0.1158543,1.43,0,-999,0,0.827,75,0.924,0.927,3.033,0.09,0,0.726,13.59,3.138,102.9865,3.309,3.309,3.307,100,0,0,0,396.8,255.3,255.3
"2022-03-01 00:18:00",2830287,3.031333,142.6,0.7999279,0.08515606,3.17,0,1.313333,135.4677,4.22343,0.1015655,1.53,0,-999,0,0.8,75.12,0.944,0.932,2.996,0.081,0,0.711,13.59,3.138,102.9739,3.308,3.31,3.308,100,0,0,0,396.8,255.2,255.3
"2022-03-01 00:19:00",2830288,3.103333,142.7333,0.6798497,0.103516,3.28,0,1.288,138.0661,3.35523,0.1385737,1.54,0,-999,0,0.813,75.13,0.953,0.937,2.913,0.109,0,0.69,13.59,3.075,102.9583,3.308,3.31,3.308,100,0,0,0,396.8,255.2,255.3
"2022-03-01 00:20:00",2830289,3.117333,142.4,0.7114955,0.06318935,3.25,0,1.345333,132.8019,3.779522,0.09548938,1.51,0,-999,0,0.893,75.03,0.969,0.978,3.013,0.094,0,0.671,13.59,3.2,102.9728,3.308,3.309,3.307,100,0,0,0,396.8,255.2,255.3
"2022-03-01 00:21:00",2830290,3.161334,142.2666,1.236455,0.06839755,3.27,0,1.341333,134.4684,3.322951,0.1184267,1.57,0,-999,0,0.9,74.99,0.986,0.998,2.954,0.048,0,0.662,13.59,3.075,102.9852,3.306,3.308,3.306,100,0,0,0,396.8,255.3,255.3
"2022-03-01 00:22:00",2830291,3.286,142.2666,0.6798497,0.09293725,3.53,0,1.443333,132.1337,2.940211,0.132296,1.66,0,-999,0,0.927,75.02,1.014,1.005,3.1,0.088,0,0.64,13.59,3.263,102.9785,3.308,3.308,3.306,100,0,0,0,396.8,255.2,255.3
"2022-03-01 00:23:00",2830292,3.250667,142.4666,0.6181905,0.06506063,3.39,0,1.384,133.6006,3.322155,0.118423,1.6,0,-999,0,0.9,75.34,1.009,1,3.058,0.048,0,0.628,13.59,3.138,102.9766,3.308,3.309,3.307,100,0,0,0,396.8,255.2,255.3
"2022-03-01 00:24:00",2830293,3.111333,141.9999,1.154935,0.1516516,3.31,0,1.261333,132.0039,5.33926,0.09308539,1.47,0,-999,0,0.9,75.62,0.988,0.999,3.054,0.087,0,0.609,13.58,3.2,102.9785,3.308,3.309,3.307,100,0,0,0,396.8,255.2,255.3
"2022-03-01 00:25:00",2830294,3.077333,142.8,1.221804,0.08298326,3.23,0,1.263333,134.1992,3.014907,0.1386442,1.59,0,-999,0,0.9,75.59,0.982,0.999,3.146,0.064,0,0.588,13.59,3.263,102.9858,3.306,3.308,3.306,100,0,0,0,396.8,255.2,255.2
"2022-03-01 00:26:00",2830295,3.172,143.0667,0.7715349,0.08726969,3.37,0,1.324667,136.7319,3.989683,0.1801801,1.67,0,-999,0,0.9,75.42,0.973,0.999,3.138,0.051,0,0.579,13.59,3.2,102.9763,3.307,3.307,3.305,100,0,0,0,396.8,255.2,255.2
"2022-03-01 00:27:00",2830296,3.21,142.4,0.879404,0.09323803,3.45,0,1.564,134.6655,3.37865,0.1599917,1.96,0,-999,0,0.9,75.17,0.978,1,3.238,0.091,0,0.565,13.59,3.388,102.9578,3.308,3.308,3.305,100,0,0,0,396.8,255.3,255.2
"2022-03-01 00:28:00",2830297,3.178,142,0.516057,0.07799146,3.32,0,1.580667,136.6017,3.591333,0.1186854,1.82,0,-999,0,0.9,74.96,0.972,0.999,3.338,0.061,0,0.544,13.58,3.513,102.9499,3.306,3.308,3.305,100,0,0,0,396.8,255.3,255.2
"2022-03-01 00:29:00",2830298,3.105334,142.5334,1.203647,0.0424055,3.16,0,1.627333,137.601,3.51686,0.1315785,1.83,0,-999,0,0.9,75.11,0.97,0.981,3.246,0.066,0,0.53,13.59,3.388,102.9608,3.308,3.309,3.306,100,0,0,0,396.8,255.2,255.2
"2022-03-01 00:30:00",2830299,3.088,142.5333,0.9567826,0.06784297,3.18,0,1.560667,139.1334,1.359797,0.1049741,1.78,0,-999,0,0.9,75.46,0.974,0.975,3.071,0.07,0,0.499,13.59,3.2,102.9801,3.307,3.308,3.307,100,0,0,0,396.8,255.2,255.2
"2022-03-01 00:31:00",2830300,3.034,144.0666,1.289155,0.08048181,3.13,0,1.566,138.5348,3.517668,0.1414119,1.81,0,-999,0,0.893,75.61,0.981,0.964,3.067,0.045,0,0.489,13.59,3.138,102.9689,3.307,3.309,3.307,100,0,0,0,396.8,255.2,255.2
"2022-03-01 00:32:00",2830301,2.874,143.6,0.711633,0.08499413,2.98,0,1.496667,138.9331,1.525992,0.06866989,1.63,0,-999,0,0.853,75.67,0.981,0.952,2.933,0.058,0,0.488,13.58,3.075,102.9674,3.306,3.307,3.304,100,0,0,0,396.8,255.2,255.2
"2022-03-01 00:33:00",2830302,2.790667,143.2666,1.062246,0.08999753,2.93,0,1.498,140.0667,0.7716617,0.06695272,1.63,0,-999,0,0.813,75.42,0.965,0.943,2.804,0.063,0,0.471,13.59,2.95,102.9802,3.306,3.308,3.304,100,0,0,0,396.8,255.2,255.2
"2022-03-01 00:34:00",2830303,2.820667,144.2,0.7484897,0.1071738,3.06,0,1.491333,137.8668,1.407892,0.06489649,1.59,0,-999,0,0.8,75.18,0.933,0.932,2.779,0.081,0,0.458,13.59,2.95,102.9739,3.306,3.307,3.306,100,0,0,0,396.8,255.2,255.2
"2022-03-01 00:35:00",2830304,2.964,142.7333,0.9976384,0.05070169,3.1,0,1.556667,136.5998,2.576714,0.06599662,1.68,0,-999,0,0.807,75.04,0.951,0.941,2.767,0.101,0,0.439,13.59,3.013,102.9701,3.306,3.306,3.304,100,0,0,0,396.8,255.2,255.2
"2022-03-01 00:36:00",2830305,2.948667,142.2,0.4000763,0.06591577,3.11,0,1.708667,137.134,3.200959,0.07182076,1.89,0,-999,0,0.887,74.76,0.987,0.966,2.838,0.076,0,0.42,13.59,3.013,102.9522,3.306,3.308,3.305,100,0,0,0,396.8,255.2,255.2
"2022-03-01 00:37:00",2830306,3.086,141.2667,0.8540015,0.0927218,3.26,0,1.896667,134.001,2.607256,0.08451165,2.06,0,-999,0,0.9,74.64,0.992,1,2.9,0.117,0,0.414,13.59,3.075,102.9362,3.306,3.307,3.305,100,0,0,0,396.8,255.2,255.2
"2022-03-01 00:38:00",2830307,3.211334,140.2,1.27534,0.04364499,3.3,0,1.688,130.1333,2.186834,0.1207863,1.89,0,-999,0,0.9,74.61,0.994,1.016,3.233,0.227,0,0.393,13.59,3.825,102.9567,3.307,3.308,3.305,100,0,0,0,396.8,255.2,255.2
"2022-03-01 00:39:00",2830308,3.41,138.8,1.166066,0.09633274,3.54,0,1.840667,127.599,2.497555,0.1393541,2.15,0,-999,0,0.9,74.77,0.997,0.985,3.263,0.068,0,0.374,13.59,3.388,102.9556,3.305,3.307,3.304,100,0,0,0,396.8,255.2,255.2
"2022-03-01 00:40:00",2830309,3.587333,137.6667,1.135279,0.07460713,3.7,0,1.997333,127.9338,3.354908,0.1964168,2.44,0,-999,0,0.86,75.15,0.942,0.922,3.471,0.084,0,0.363,13.58,3.7,102.9543,3.302,3.307,3.302,100,0,0,0,396.8,255.2,255.2
"2022-03-01 00:41:00",2830310,3.740667,138.6,1.019661,0.07261462,3.86,0,2.114666,127.9335,2.048234,0.2214157,2.57,0,-999,0,0.8,75.39,0.908,0.884,3.683,0.111,0,0.351,13.59,3.888,102.9477,3.308,3.308,3.303,100,0,0,0,396.8,255.2,255.2
"2022-03-01 00:42:00",2830311,3.968667,136.8666,1.024448,0.05607935,4.07,0,2.230667,128.8665,2.418161,0.1785298,2.43,0,-999,0,0.8,75.55,0.872,0.865,3.867,0.078,0,0.33,13.59,4.012,102.9481,3.306,3.308,3.304,100,0,0,0,396.8,255.2,255.2
"2022-03-01 00:43:00",2830312,4.098667,137.4,1.143182,0.03363859,4.15,0,2.143334,130.8005,5.452993,0.226058,2.7,0,-999,0,0.727,75.91,0.852,0.824,4.05,0.071,0,0.327,13.59,4.138,102.9494,3.307,3.308,3.305,100,0,0,0,396.8,255.2,255.2
"2022-03-01 00:44:00",2830313,4.050666,137.8,1.107705,0.06903777,4.14,0,1.838,133.1336,3.630325,0.210276,2.2,0,-999,0,0.7,76.31,0.827,0.797,4.087,0.052,0,0.287,13.59,4.2,102.9529,3.306,3.308,3.306,100,0,0,0,396.8,255.2,255.2
"2022-03-01 00:45:00",2830314,3.937334,139,0.9660447,0.08887947,4.09,0,1.857333,139.7355,4.104846,0.2236803,2.45,0,-999,0,0.7,76.73,0.816,0.806,4.042,0.068,0,0.27,13.59,4.138,102.9422,3.305,3.307,3.304,100,0,0,0,396.8,255.2,255.2
"2022-03-01 00:46:00",2830315,3.822667,140.4666,0.6183487,0.0674751,3.95,0,1.765334,145.6616,4.639287,0.1925571,2.01,0,-999,0,0.7,76.91,0.808,0.792,3.967,0.058,0,0.265,13.59,4.012,102.9336,3.304,3.305,3.303,100,0,0,0,396.8,255.2,255.2
"2022-03-01 00:47:00",2830316,3.728,143.0666,0.8540015,0.1016661,3.87,0,1.721333,151.3296,4.684878,0.1706406,2.08,0,-999,0,0.7,76.65,0.795,0.799,3.863,0.078,0,0.246,13.59,4.012,102.9499,3.305,3.305,3.303,100,0,0,0,396.8,255.2,255.2
"2022-03-01 00:48:00",2830317,3.749333,144.3333,0.7888421,0.07611103,3.89,0,1.744,158.1995,3.080684,0.1723485,2.14,0,-999,0,0.7,76.13,0.795,0.808,3.608,0.075,0,0.231,13.59,3.7,102.9624,3.304,3.306,3.304,100,0,0,0,396.8,255.2,255.2
"2022-03-01 00:49:00",2830318,3.674667,146.6666,1.192456,0.08554661,3.83,0,1.748,156.3995,3.220413,0.134174,2.07,0,-999,0,0.7,76.08,0.79,0.799,3.733,0.075,0,0.223,13.59,3.825,102.9643,3.308,3.308,3.304,100,0,0,0,396.8,255.2,255.2
"2022-03-01 00:50:00",2830319,3.561333,149.0667,0.9287584,0.04514666,3.67,0,1.85,155.6685,3.338821,0.1408546,2.13,0,-999,0,0.7,76.28,0.756,0.783,3.588,0.13,0,0.211,13.59,3.825,102.9648,3.304,3.308,3.304,100,0,0,0,396.8,255.2,255.2
"2022-03-01 00:51:00",2830320,3.623333,149.1333,1.024448,0.09788882,3.77,0,1.705333,154.2671,3.254699,0.1011182,1.9,0,-999,0,0.7,76.43,0.758,0.784,3.275,0.105,0,0.203,13.59,3.45,102.9676,3.304,3.306,3.304,100,0,0,0,396.8,255.2,255.2
"2022-03-01 00:52:00",2830321,3.596667,149.4,1.019949,0.1154508,3.77,0,1.699333,154.3332,2.772812,0.1366488,1.97,0,-999,0,0.7,76.38,0.757,0.784,2.983,0.088,0,0.184,13.59,3.138,102.964,3.305,3.306,3.302,100,0,0,0,396.8,255.2,255.2
"2022-03-01 00:53:00",2830322,3.526,149.8664,2.093206,0.09638809,3.69,0,1.415333,162.3998,3.89458,0.1108071,1.62,0,-999,0,0.7,76.42,0.758,0.783,2.967,0.074,0,0.179,13.59,3.138,102.9668,3.307,3.307,3.304,100,0,0,0,396.8,255.2,255.2
"2022-03-01 00:54:00",2830323,3.078,154.2002,1.469395,0.1102845,3.27,0,1.215333,184.8159,13.15644,0.1380756,1.48,0,-999,0,0.7,76.83,0.784,0.811,2.725,0.118,0,0.16,13.58,2.95,102.9575,3.304,3.307,3.304,100,0,0,0,396.8,255.2,255.2
"2022-03-01 00:55:00",2830324,2.698667,155.5999,1.925115,0.2088019,3.02,0,1.176667,221.9706,10.08279,0.1915086,1.79,0,-999,0,0.647,77.87,0.657,0.685,2.796,0.064,0,0.157,13.59,2.888,102.9506,3.303,3.305,3.303,100,0,0,0,396.8,255.2,255.2
"2022-03-01 00:56:00",2830325,2.648,153.7999,2.256702,0.1772456,2.9,0,1.219333,202.333,2.599051,0.09051457,1.35,0,-999,0,0.34,77.21,0.304,0.396,2.738,0.055,0,0.138,13.59,2.825,102.9684,3.305,3.305,3.302,100,0,0,0,396.8,255.2,255.2
"2022-03-01 00:57:00",2830326,2.864667,153.733,2.379285,0.1311928,3.08,0,1.187333,198.7333,2.143594,0.0528478,1.29,0,-999,0,0.24,75.72,0.243,0.282,2.658,0.049,0,0.131,13.59,2.763,102.9735,3.304,3.306,3.304,100,0,0,0,396.8,255.2,255.2
"2022-03-01 00:58:00",2830327,2.950667,151.4,2.332258,0.1882009,3.2,0,1.115333,198.0654,3.973161,0.03480739,1.17,0,-999,0,0.187,75.92,0.196,0.2,2.775,0.057,0,0.117,13.59,2.888,102.9801,3.306,3.306,3.303,100,0,0,0,396.8,255.2,255.2
"2022-03-01 00:59:00",2830328,3.119334,149.9999,1.549038,0.1545085,3.34,0,1.002,192.3381,4.986331,0.05153638,1.14,0,-999,0,0.1,76.39,0.109,0.113,2.671,0.072,0,0.098,13.59,2.763,102.9772,3.305,3.307,3.305,100,0,0,0,396.8,255.2,255.2
"2022-03-01 01:00:00",2830329,3.077333,149,1.211023,0.09447869,3.23,0,1.025333,188.6046,4.205579,0.07684328,1.16,0,-999,0,0.047,76.62,0.097,0.071,2.692,0.079,0,0.08,13.59,2.825,102.9719,3.306,3.307,3.304,100,0,0,0,396.8,255.2,255.2
"2022-03-01 01:01:00",2830330,3.110667,147.2,0.7479666,0.08652297,3.25,0,1.095333,194.0719,4.505712,0.05748817,1.19,0,-999,0,-0.033,76.81,0.019,-0.039,2.542,0.096,0,0.057,13.59,2.7,102.9799,3.305,3.306,3.304,100,0,0,0,396.8,255.2,255.2
"2022-03-01 01:02:00",2830331,3.025334,148.7333,1.28961,0.0771895,3.17,0,1.163333,183.672,5.116296,0.03927114,1.23,0,-999,0,-0.167,76.85,-0.083,-0.16,2.379,0.039,0,0.042,13.59,2.45,102.9807,3.304,3.305,3.303,100,0,0,0,396.8,255.2,255.2
"2022-03-01 01:03:00",2830332,2.827333,153.2,0.9796239,0.09671032,3,0,1.235333,185.8671,3.283108,0.0298589,1.31,0,-999,0,-0.127,76.95,-0.014,-0.071,2.363,0.068,0,0.014,13.59,2.45,102.9596,3.304,3.305,3.302,100,0,0,0,396.8,255.2,255.2
"2022-03-01 01:04:00",2830333,2.513333,154.4667,0.8841757,0.06709857,2.65,0,1.285333,179.9311,4.566875,0.05175154,1.35,0,-999,0,-0.1,77.25,0.032,-0.02,2.383,0.048,0,-0.013,13.59,2.45,102.9477,3.304,3.305,3.303,100,0,0,0,396.8,255.2,255.2
"2022-03-01 01:05:00",2830334,2.555333,153.6001,1.40462,0.07666957,2.71,0,1.354667,171.7999,3.102249,0.03461535,1.44,0,-999,0,-0.093,77.4,0.037,-0.002,2.583,0.045,0,-0.032,13.59,2.638,102.9684,3.304,3.304,3.302,100,0,0,0,396.8,255.2,255.2
"2022-03-01 01:06:00",2830335,2.686667,153.8667,1.087016,0.08607492,2.9,0,1.418667,171.8004,2.534699,0.03792391,1.47,0,-999,0,0.027,77.29,0.129,0.11,2.575,0.051,0,-0.055,13.59,2.638,102.9703,3.304,3.304,3.302,100,0,0,0,396.8,255.2,255.2
"2022-03-01 01:07:00",2830336,2.633334,153.1335,1.543214,0.07524774,2.78,0,1.496,172.534,1.961493,0.02653297,1.55,0,-999,0,0.1,77.41,0.218,0.197,2.608,0.06,0,-0.08,13.59,2.7,102.9766,3.302,3.304,3.302,100,0,0,0,396.8,255.2,255.2
"2022-03-01 01:08:00",2830337,2.413333,154.9333,1.730801,0.05436504,2.51,0,1.503333,168.3326,2.649381,0.02772884,1.57,0,-999,0,0.193,77.51,0.286,0.273,2.654,0.028,0,-0.104,13.59,2.7,102.9728,3.304,3.304,3.301,100,0,0,0,396.8,255.2,255.2
"2022-03-01 01:09:00",2830338,2.388,155.9336,2.048329,0.05901416,2.5,0,1.461334,171.9345,2.908504,0.02578544,1.5,0,-999,0,0.26,77.32,0.392,0.377,2.767,0.058,0,-0.123,13.59,2.825,102.9712,3.305,3.305,3.302,100,0,0,0,396.8,255.2,255.2
"2022-03-01 01:10:00",2830339,2.376667,154.8,1.83294,0.1012368,2.54,0,1.473333,172.8,1.514402,0.03735714,1.53,0,-999,0,0.367,77.13,0.447,0.454,2.658,0.059,0,-0.145,13.59,2.763,102.9722,3.304,3.305,3.303,100,0,0,0,396.8,255.2,255.2
"2022-03-01 01:11:00",2830340,2.418,154.3999,1.743425,0.1041281,2.59,0,1.647333,169.0001,2.033022,0.06727722,1.73,0,-999,0,0.4,76.92,0.488,0.471,2.746,0.048,0,-0.166,13.59,2.825,102.9614,3.303,3.304,3.302,100,0,0,0,396.8,255.2,255.2
"2022-03-01 01:12:00",2830341,2.62,150.4666,1.820775,0.1666533,2.93,0,1.643333,167.2,0.9797238,0.07820203,1.76,0,-999,0,0.44,76.43,0.516,0.508,2.746,0.07,0,-0.188,13.59,2.825,102.9426,3.302,3.304,3.301,100,0,0,0,396.8,255.2,255.2
"2022-03-01 01:13:00",2830342,2.666,150.0666,1.610991,0.09951884,2.78,0,1.596666,166.9995,2.449155,0.05758087,1.69,0,-999,0,0.5,76.04,0.569,0.568,2.754,0.055,0,-0.201,13.59,2.825,102.9586,3.302,3.302,3.3,100,0,0,0,396.8,255.2,255.2
"2022-03-01 01:14:00",2830343,2.830667,149.4667,1.499724,0.06506067,2.93,0,1.471333,169.8,1.423379,0.02895206,1.51,0,-999,0,0.5,76.01,0.587,0.588,2.679,0.044,0,-0.222,13.59,2.763,102.9723,3.304,3.304,3.302,100,0,0,0,396.8,255.2,255.2
"2022-03-01 01:15:00",2830344,2.744667,147.3333,1.074702,0.08032153,2.85,0,1.411333,170.2001,1.275263,0.0452941,1.48,0,-999,0,0.5,76.25,0.585,0.579,2.625,0.047,0,-0.24,13.59,2.7,102.9801,3.301,3.305,3.301,100,0,0,0,396.8,255.2,255.2
"2022-03-01 01:16:00",2830345,2.934667,146.7331,1.610748,0.1344057,3.11,0,1.414667,167.2001,1.275263,0.02918143,1.47,0,-999,0,0.5,76.39,0.562,0.575,2.65,0.052,0,-0.255,13.59,2.763,102.9694,3.302,3.303,3.301,100,0,0,0,396.8,255.2,255.2
"2022-03-01 01:17:00",2830346,3.067333,144.2,0.7484897,0.05685849,3.16,0,1.426,161.6667,1.659952,0.04454212,1.5,0,-999,0,0.5,76.55,0.549,0.569,2.579,0.093,0,-0.272,13.59,2.763,102.9733,3.302,3.303,3.3,100,0,0,0,396.8,255.2,255.2
"2022-03-01 01:18:00",2830347,3.118667,144.5333,0.6183487,0.05783505,3.23,0,1.366667,160.2665,1.80609,0.05460972,1.44,0,-999,0,0.553,76.59,0.588,0.606,2.488,0.06,0,-0.287,13.59,2.575,102.9774,3.301,3.302,3.3,100,0,0,0,396.8,255.2,255.2
"2022-03-01 01:19:00",2830348,2.977333,144.4667,0.8845076,0.05949416,3.09,0,1.400667,155.4008,4.045427,0.08338396,1.62,0,-999,0,0.6,76.66,0.62,0.641,2.729,0.148,0,-0.295,13.59,3.013,102.973,3.303,3.303,3.301,100,0,0,0,396.8,255.2,255.2
"2022-03-01 01:20:00",2830349,2.900667,145.6667,1.010987,0.0585909,2.98,0,1.290667,157.2663,2.954146,0.1692125,1.67,0,-999,0,0.6,76.61,0.653,0.682,2.925,0.096,0,-0.309,13.59,3.075,102.9557,3.302,3.303,3.3,100,0,0,0,396.8,255.2,255.2
"2022-03-01 01:21:00",2830350,3.017334,145.4,1.019661,0.05579321,3.11,0,1.156667,160.2675,3.17151,0.09533565,1.28,0,-999,0,0.62,76.54,0.669,0.706,2.946,0.053,0,-0.33,13.58,3.013,102.944,3.304,3.304,3.3,100,0,0,0,396.8,255.2,255.2
"2022-03-01 01:22:00",2830351,2.912666,144.5333,0.7177936,0.07159764,3.03,0,1.114667,155.7341,3.192525,0.06530611,1.21,0,-999,0,0.687,76.58,0.669,0.705,2.971,0.059,0,-0.334,13.59,3.075,102.9648,3.304,3.304,3.302,100,0,0,0,396.8,255.2,255.2
"2022-03-01 01:23:00",2830352,2.970667,145.5333,0.8052921,0.06717803,3.06,0,1.052,160.7306,4.104799,0.09481208,1.31,0,-999,0,0.64,76.71,0.628,0.682,2.9,0.057,0,-0.35,13.59,3.013,102.9699,3.302,3.303,3.3,100,0,0,0,396.8,255.2,255.2
"2022-03-01 01:24:00",2830353,3.055333,146.2666,0.7715349,0.06354699,3.17,0,1.156667,159.0683,5.539041,0.08202979,1.31,0,-999,0,0.6,77.2,0.571,0.619,2.879,0.045,0,-0.358,13.59,2.95,102.9696,3.302,3.302,3.3,100,0,0,0,396.8,255.2,255.2
"2022-03-01 01:25:00",2830354,2.979333,145.9333,1.12332,0.05949415,3.13,0,1.110667,153.934,2.35079,0.09767066,1.37,0,-999,0,0.527,77.33,0.523,0.573,2.817,0.06,0,-0.373,13.59,2.95,102.9712,3.302,3.302,3.3,100,0,0,0,396.8,255.2,255.2
"2022-03-01 01:26:00",2830355,3.002,145.8668,1.407822,0.04475112,3.09,0,0.9740001,158.4663,2.679463,0.09576359,1.11,0,-999,0,0.5,77.02,0.511,0.542,2.7,0.072,0,-0.373,13.59,2.825,102.9708,3.303,3.305,3.302,100,0,0,0,396.8,255.2,255.2
"2022-03-01 01:27:00",2830356,2.97,146.8666,1.087196,0.05416025,3.05,0,0.9106666,162.9303,3.818608,0.08449588,1.05,0,-999,0,0.5,77.04,0.476,0.54,2.663,0.05,0,-0.391,13.59,2.763,102.9694,3.302,3.305,3.302,100,0,0,0,396.8,255.2,255.2
"2022-03-01 01:28:00",2830357,2.872,146.5333,0.805049,0.06188165,2.96,0,0.7626666,183.2663,5.395947,0.03820413,0.83,0,-999,0,0.487,77.32,0.451,0.505,2.542,0.031,0,-0.395,13.59,2.575,102.9595,3.3,3.302,3.3,100,0,0,0,396.8,255.2,255.2
"2022-03-01 01:29:00",2830358,2.836667,146.4,0.9518608,0.06394444,2.93,0,0.786,178.9961,4.785585,0.05174295,0.89,0,-999,0,0.413,77.59,0.433,0.462,2.588,0.057,0,-0.416,13.59,2.7,102.9518,3.302,3.303,3.301,100,0,0,0,396.8,255.2,255.2
"2022-03-01 01:30:00",2830359,2.862667,145.4666,0.6183487,0.06546928,3.01,0,0.8993334,166.6661,5.696845,0.1211317,1.1,0,-999,0,0.4,77.84,0.424,0.451,2.567,0.068,0,-0.416,13.59,2.638,102.9629,3.301,3.301,3.298,100,0,0,0,396.8,255.2,255.2
"2022-03-01 01:31:00",2830360,2.740667,144.0667,0.8536577,0.07496367,2.86,0,0.9173333,164.9972,4.703247,0.07187644,1.11,0,-999,0,0.4,77.65,0.409,0.44,2.663,0.075,0,-0.428,13.59,2.825,102.9739,3.301,3.302,3.3,100,0,0,0,396.8,255.2,255.2
"2022-03-01 01:32:00",2830361,2.631333,142.8667,0.7179299,0.06216827,2.72,0,0.8606667,162.941,6.394883,0.07767168,1,0,-999,0,0.387,77.64,0.392,0.431,2.738,0.085,0,-0.436,13.59,2.825,102.9734,3.301,3.302,3.3,100,0,0,0,396.8,255.2,255.2
"2022-03-01 01:33:00",2830362,2.604666,143.6,0.9520664,0.1046815,2.77,0,0.8553334,163.5961,6.816557,0.08593538,1,0,-999,0,0.4,77.51,0.375,0.424,2.654,0.074,0,-0.451,13.59,2.825,102.9729,3.3,3.301,3.299,100,0,0,0,396.8,255.2,255.2
"2022-03-01 01:34:00",2830363,2.452,143.8,0.8330048,0.03350618,2.5,0,0.8233334,164.5976,4.990156,0.0820298,0.99,0,-999,0,0.4,77.56,0.361,0.418,2.621,0.042,0,-0.457,13.59,2.7,102.9668,3.3,3.301,3.3,100,0,0,0,396.8,255.2,255.2
"2022-03-01 01:35:00",2830364,2.469333,145.2,0.9799235,0.04296764,2.56,0,0.918,167.7351,3.871728,0.06584832,1.07,0,-999,0,0.4,77.72,0.368,0.409,2.629,0.05,0,-0.457,13.59,2.7,102.9702,3.3,3.301,3.3,100,0,0,0,396.8,255.2,255.2
"2022-03-01 01:36:00",2830365,2.378,144.6667,0.7887181,0.06337195,2.51,0,0.9593334,162.4019,4.094763,0.09684811,1.23,0,-999,0,0.4,77.76,0.378,0.41,2.558,0.053,0,-0.47,13.59,2.7,102.9672,3.3,3.302,3.3,100,0,0,0,396.8,255.2,255.2
"2022-03-01 01:37:00",2830366,2.459334,143.5333,0.7179299,0.0420264,2.56,0,1.048667,156.7341,4.310381,0.08507775,1.21,0,-999,0,0.4,77.53,0.407,0.444,2.504,0.072,0,-0.479,13.59,2.638,102.9515,3.3,3.301,3.299,100,0,0,0,396.8,255.2,255.2
"2022-03-01 01:38:00",2830367,2.472,143.8667,0.8842863,0.05659205,2.59,0,1.010666,156.5331,2.57831,0.05543365,1.1,0,-999,0,0.4,77.41,0.429,0.463,2.546,0.05,0,-0.481,13.59,2.638,102.9493,3.3,3.302,3.3,100,0,0,0,396.8,255.2,255.2
"2022-03-01 01:39:00",2830368,2.444667,142.4,0.6111867,0.05475601,2.54,0,1.094,153.6669,2.240805,0.07382861,1.17,0,-999,0,0.447,77.23,0.458,0.501,2.588,0.041,0,-0.495,13.59,2.638,102.9751,3.3,3.3,3.299,100,0,0,0,396.8,255.2,255.2
"2022-03-01 01:40:00",2830369,2.437333,141.8,0.7480974,0.03549022,2.51,0,1.172667,152.4669,2.093253,0.05446303,1.3,0,-999,0,0.5,77.27,0.505,0.541,2.613,0.06,0,-0.5,13.59,2.7,102.9745,3.3,3.305,3.3,100,0,0,0,396.8,255.2,255.2
"2022-03-01 01:41:00",2830370,2.42,141.8,0.3998317,0.028519,2.47,0,1.141333,151.8618,4.269415,0.04674277,1.26,0,-999,0,0.527,77.33,0.564,0.587,2.513,0.076,0,-0.5,13.59,2.638,102.9709,3.3,3.302,3.3,100,0,0,0,396.8,255.2,255.2
"2022-03-01 01:42:00",2830371,2.402,142.1333,0.6183487,0.03187481,2.45,0,1.174667,152.2668,2.351207,0.06042809,1.28,0,-999,0,0.593,77.39,0.612,0.633,2.438,0.057,0,-0.5,13.59,2.575,102.9666,3.301,3.302,3.299,100,0,0,0,396.8,255.2,255.2
"2022-03-01 01:43:00",2830372,2.492,142.0667,0.2502298,0.02902869,2.55,0,1.189333,152.9326,3.640769,0.07460712,1.39,0,-999,0,0.62,77.39,0.671,0.7,2.375,0.057,0,-0.507,13.59,2.513,102.975,3.299,3.301,3.298,100,0,0,0,396.8,255.2,255.2